Meteo orario Gohana

Oggi, 16 Aprile, Venerdi

Tempo Temperatura Precipitazioni Vento Pressione Umidità
00:00 +30°C° 0 mm 3 m/s 734 mm Hg 17%
01:00 +30°C° 0 mm 2 m/s 734 mm Hg 18%
02:00 +29°C° 0 mm 2 m/s 734 mm Hg 19%
03:00 +29°C° 0 mm 2 m/s 734 mm Hg 20%
04:00 +28°C° 0 mm 2 m/s 734 mm Hg 20%
05:00 +28°C° 0 mm 1 m/s 734 mm Hg 20%
06:00 +30°C° 0 mm 1 m/s 735 mm Hg 18%
07:00 +32°C° 0 mm 2 m/s 735 mm Hg 16%
08:00 +34°C° 0 mm 2 m/s 736 mm Hg 14%
09:00 +37°C° 0 mm 3 m/s 736 mm Hg 12%
10:00 +39°C° 0 mm 3 m/s 736 mm Hg 11%
11:00 +42°C° 0 mm 3 m/s 736 mm Hg 9%
12:00 +43°C° 0 mm 4 m/s 735 mm Hg 9%
13:00 +43°C° 0 mm 4 m/s 734 mm Hg 8%
14:00 +44°C° 0 mm 4 m/s 733 mm Hg 8%
15:00 +41°C° 0 mm 5 m/s 733 mm Hg 13%
16:00 +39°C° 0 mm 7 m/s 733 mm Hg 18%
17:00 +35°C° 0 mm 8 m/s 733 mm Hg 22%
18:00 +33°C° 0 mm 8 m/s 734 mm Hg 27%
19:00 +32°C° 0 mm 8 m/s 735 mm Hg 31%
20:00 +29°C° 0 mm 8 m/s 736 mm Hg 35%
21:00 +29°C° 0 mm 6 m/s 736 mm Hg 36%
22:00 +29°C° 0 mm 4 m/s 736 mm Hg 37%
23:00 +29°C° 0 mm 2 m/s 735 mm Hg 39%

Domani, 17 Aprile, Sabato

Tempo Temperatura Precipitazioni Vento Pressione Umidità
00:00 +28°C° 0 mm 2 m/s 735 mm Hg 40%
01:00 +27°C° 0 mm 1 m/s 735 mm Hg 42%
02:00 +27°C° 0 mm 1 m/s 735 mm Hg 44%
03:00 +26°C° 0 mm 1 m/s 735 mm Hg 45%
04:00 +25°C° 0 mm 2 m/s 735 mm Hg 47%
05:00 +25°C° 0 mm 2 m/s 735 mm Hg 49%
06:00 +26°C° 0 mm 2 m/s 736 mm Hg 44%
07:00 +28°C° 0 mm 2 m/s 736 mm Hg 39%
08:00 +30°C° 0 mm 3 m/s 737 mm Hg 34%
09:00 +33°C° 0 mm 3 m/s 737 mm Hg 29%
10:00 +35°C° 0 mm 3 m/s 737 mm Hg 25%
11:00 +37°C° 0 mm 4 m/s 737 mm Hg 20%
12:00 +37°C° 0 mm 4 m/s 737 mm Hg 18%
13:00 +38°C° 0 mm 4 m/s 736 mm Hg 17%
14:00 +39°C° 0 mm 5 m/s 735 mm Hg 15%
15:00 +39°C° 0 mm 5 m/s 735 mm Hg 15%
16:00 +39°C° 0 mm 6 m/s 735 mm Hg 14%
17:00 +39°C° 0 mm 6 m/s 735 mm Hg 14%
18:00 +35°C° 0 mm 6 m/s 736 mm Hg 21%
19:00 +32°C° 0 mm 5 m/s 737 mm Hg 28%
20:00 +28°C° 0 mm 5 m/s 737 mm Hg 36%
21:00 +27°C° 0 mm 4 m/s 738 mm Hg 39%
22:00 +26°C° 0 mm 3 m/s 738 mm Hg 42%
23:00 +25°C° 0 mm 3 m/s 738 mm Hg 45%

Dopodomani, 18 Aprile, Domenica

Tempo Temperatura Precipitazioni Vento Pressione Umidità
00:00 +25°C° 0 mm 3 m/s 738 mm Hg 45%
01:00 +24°C° 0 mm 2 m/s 737 mm Hg 46%
02:00 +24°C° 0 mm 2 m/s 737 mm Hg 46%
03:00 +24°C° 0 mm 2 m/s 737 mm Hg 45%
04:00 +24°C° 0 mm 2 m/s 737 mm Hg 45%
05:00 +23°C° 0 mm 2 m/s 737 mm Hg 45%
06:00 +25°C° 0 mm 2 m/s 738 mm Hg 39%
07:00 +27°C° 0 mm 2 m/s 738 mm Hg 34%
08:00 +30°C° 0 mm 2 m/s 739 mm Hg 29%
09:00 +32°C° 0 mm 2 m/s 738 mm Hg 24%
10:00 +35°C° 0 mm 2 m/s 738 mm Hg 20%
11:00 +38°C° 0 mm 2 m/s 738 mm Hg 16%
12:00 +39°C° 0 mm 3 m/s 737 mm Hg 13%
13:00 +41°C° 0 mm 4 m/s 736 mm Hg 11%
14:00 +42°C° 0 mm 5 m/s 735 mm Hg 9%
15:00 +42°C° 0 mm 5 m/s 735 mm Hg 9%
16:00 +41°C° 0 mm 5 m/s 735 mm Hg 8%
17:00 +41°C° 0 mm 6 m/s 734 mm Hg 8%
18:00 +39°C° 0 mm 5 m/s 734 mm Hg 9%
19:00 +36°C° 0 mm 3 m/s 734 mm Hg 10%
20:00 +34°C° 0 mm 2 m/s 734 mm Hg 12%
21:00 +32°C° 0 mm 2 m/s 735 mm Hg 13%
22:00 +31°C° 0 mm 2 m/s 735 mm Hg 14%
23:00 +30°C° 0 mm 3 m/s 735 mm Hg 15%

19 Aprile, Lunedi

Tempo Temperatura Precipitazioni Vento Pressione Umidità
00:00 +29°C° 0 mm 2 m/s 734 mm Hg 16%
01:00 +28°C° 0 mm 2 m/s 734 mm Hg 18%
02:00 +28°C° 0 mm 1 m/s 734 mm Hg 20%
03:00 +27°C° 0 mm 2 m/s 734 mm Hg 20%
04:00 +27°C° 0 mm 2 m/s 734 mm Hg 21%
05:00 +26°C° 0 mm 2 m/s 734 mm Hg 21%
06:00 +29°C° 0 mm 2 m/s 734 mm Hg 19%
07:00 +31°C° 0 mm 2 m/s 735 mm Hg 16%
08:00 +34°C° 0 mm 2 m/s 735 mm Hg 14%
09:00 +36°C° 0 mm 2 m/s 735 mm Hg 11%
10:00 +39°C° 0 mm 2 m/s 735 mm Hg 9%
11:00 +42°C° 0 mm 3 m/s 735 mm Hg 6%
12:00 +43°C° 0 mm 4 m/s 734 mm Hg 6%
13:00 +43°C° 0 mm 5 m/s 733 mm Hg 5%
14:00 +45°C° 0 mm 6 m/s 733 mm Hg 5%
15:00 +45°C° 0 mm 5 m/s 732 mm Hg 5%
16:00 +43°C° 0 mm 5 m/s 732 mm Hg 5%
17:00 +43°C° 0 mm 5 m/s 732 mm Hg 5%
18:00 +40°C° 0 mm 4 m/s 732 mm Hg 6%
19:00 +37°C° 0 mm 4 m/s 732 mm Hg 7%
20:00 +35°C° 0 mm 3 m/s 732 mm Hg 8%
21:00 +34°C° 0 mm 3 m/s 732 mm Hg 9%
22:00 +33°C° 0 mm 3 m/s 733 mm Hg 9%
23:00 +31°C° 0 mm 3 m/s 733 mm Hg 9%

20 Aprile, Martedi

Tempo Temperatura Precipitazioni Vento Pressione Umidità
00:00 +30°C° 0 mm 2 m/s 732 mm Hg 10%
01:00 +29°C° 0 mm 2 m/s 732 mm Hg 10%
02:00 +28°C° 0 mm 1 m/s 732 mm Hg 11%
03:00 +28°C° 0 mm 1 m/s 732 mm Hg 11%
04:00 +28°C° 0 mm 1 m/s 732 mm Hg 11%
05:00 +28°C° 0 mm 2 m/s 732 mm Hg 11%
06:00 +29°C° 0 mm 1 m/s 733 mm Hg 10%
07:00 +31°C° 0 mm 1 m/s 733 mm Hg 8%
08:00 +33°C° 0 mm 1 m/s 734 mm Hg 7%
09:00 +36°C° 0 mm 1 m/s 733 mm Hg 6%
10:00 +39°C° 0 mm 2 m/s 733 mm Hg 6%
11:00 +41°C° 0 mm 2 m/s 733 mm Hg 5%
12:00 +42°C° 0 mm 3 m/s 733 mm Hg 6%
13:00 +42°C° 0 mm 4 m/s 733 mm Hg 6%
14:00 +42°C° 0 mm 4 m/s 732 mm Hg 7%
15:00 +41°C° 0 mm 5 m/s 732 mm Hg 9%
16:00 +40°C° 0 mm 5 m/s 732 mm Hg 10%
17:00 +39°C° 0 mm 6 m/s 731 mm Hg 11%
18:00 +37°C° 0.1 mm 5 m/s 732 mm Hg 15%
19:00 +35°C° 0.1 mm 3 m/s 733 mm Hg 19%
20:00 +32°C° 0.1 mm 2 m/s 733 mm Hg 23%
21:00 +31°C° 0.6 mm 3 m/s 734 mm Hg 27%
22:00 +29°C° 0.6 mm 5 m/s 735 mm Hg 32%
23:00 +28°C° 0.6 mm 6 m/s 736 mm Hg 36%

21 Aprile, Mercoledi

Tempo Temperatura Precipitazioni Vento Pressione Umidità
00:00 +28°C° 0 mm 4 m/s 735 mm Hg 37%
01:00 +28°C° 0 mm 3 m/s 735 mm Hg 38%
02:00 +27°C° 0 mm 1 m/s 734 mm Hg 38%
03:00 +27°C° 0 mm 1 m/s 734 mm Hg 39%
04:00 +26°C° 0 mm 1 m/s 735 mm Hg 39%
05:00 +26°C° 0 mm 1 m/s 735 mm Hg 40%
06:00 +28°C° 0 mm 2 m/s 736 mm Hg 35%
07:00 +30°C° 0 mm 3 m/s 736 mm Hg 31%
08:00 +31°C° 0 mm 3 m/s 737 mm Hg 26%
09:00 +34°C° 0 mm 3 m/s 737 mm Hg 23%
10:00 +37°C° 0 mm 3 m/s 736 mm Hg 19%
11:00 +39°C° 0 mm 3 m/s 736 mm Hg 16%
12:00 +39°C° 0 mm 3 m/s 735 mm Hg 15%
13:00 +41°C° 0 mm 4 m/s 734 mm Hg 13%
14:00 +41°C° 0 mm 4 m/s 733 mm Hg 12%
15:00 +38°C° 0.2 mm 4 m/s 733 mm Hg 16%
16:00 +35°C° 0.2 mm 5 m/s 733 mm Hg 21%
17:00 +33°C° 0.2 mm 6 m/s 733 mm Hg 26%
18:00 +30°C° 0 mm 5 m/s 734 mm Hg 29%
19:00 +29°C° 0 mm 4 m/s 735 mm Hg 33%
20:00 +27°C° 0 mm 3 m/s 736 mm Hg 37%
21:00 +27°C° 0 mm 3 m/s 736 mm Hg 39%
22:00 +26°C° 0 mm 2 m/s 737 mm Hg 40%
23:00 +26°C° 0 mm 2 m/s 737 mm Hg 42%
Mostrare altro

Abbiamo bisogno del tuo consenso

Meteoprog e i nostri fornitori di servizi possono memorizzare e accedere a dati personali come cookie, identificatori di dispositivi o altre tecnologie simili sul tuo dispositivo e possono elaborare tali dati per personalizzare i contenuti e gli annunci, nonché fornire funzionalità dei social media e analizzarne il traffico.

  • Archiviare e/o accedere alle informazioni sul tuo dispositivo

    Cookie, identificatori di dispositivi o altre informazioni possono essere memorizzati o resi accessibili sul tuo dispositivo per le finalità sopra indicate.

  • Annunci e contenuti personalizzati, misurazione di annunci e contenuti, approfondimenti sul pubblico e sviluppo di prodotti

    Gli annunci e i contenuti possono essere personalizzati in base a un profilo. È possibile aggiungere più dati per personalizzare meglio annunci e contenuti. È possibile misurare il rendimento degli annunci e dei contenuti. È possibile ricavare informazioni sul pubblico che ha visto gli annunci e i contenuti. Tali dati possono essere utilizzati per sviluppare o migliorare l'esperienza, i sistemi e il software dell'utente.

Cliccando su “Accetto”, acconsenti all'uso di cookie, identificatori di dispositivo, web beacon o altre tecnologie simili. Puoi modificare le impostazioni nel browser del tuo dispositivo.

Per determinati scopi, è possibile fare affidamento su interessi legali, piuttosto che sul consenso. Puoi approfondire questo argomento consultando la nostra Informativa sulla privacy e sui cookie.